map of PHC home
Great Circle Mapper logo
PHC - Airport
Location
City:  Port Harcourt, Nigeria
Near (Alt.):Omagwa
Name:Port Harcourt International Airport
ICAO / IATA:DNPO / PHC

Details
Type:Airport (Aerodrome, Airfield)
Use:Public/Civil, International (customs port of entry)
Latitude:500'56"N (5.015494)
Longitude:656'59"E (6.949594)
Datum:WGS 1984
Elevation:87 ft (27 m)
Runways:1
Longest:9846 × 197 ft (3001 × 60 m), paved

Time
Time Zone:UTC+1
Local Time:

Weather
METAR:DNPO 210900Z 00000KT 9999 BKN007 FEW020CB 26/24 Q1016 NOSIG
TAF:DNPO 211549Z 2118/2224 25007KT 8000 TS BKN008 FEW020CB
TEMPO 2118/2123 5000 -TSRA
BECMG 2123/2201 00000KT 7000 NSW SCT008
TEMPO 2204/2208 5000 BR/-RA
BECMG 2208/2210 20008KT 9999 BKN011 FEW020CB

Related Locations
Nearby:
Farthest:CIS: 12255 mi / 19722 km
Canton Island, KI

Find:

   beyond  
but within

Other Information
Maps:
NOTAMs:
Links:
Sources:

  
flag of Nigeria   

Sectional Chart

Flight Planning
at skyvector.com

Satellite Image

Google Maps Satellite View

 

Copyright © 2004-2014 Karl L. Swartz. All rights reserved.
The Great Circle Mapper name and logo are trademarks of the Great Circle Mapper.
All other trademarks mentioned herein belong to their respective owners.
Please see credits for attibutions and further copyright information.

  Follow gcmap on Facebook Follow gcmap on Twitter

hCard Microformat

Geo Microformat